NOAA-14
1 23455U 94089A   05013.84039922  .00000135  00000-0  71874-4 0  4338
2 23455  99.1138  59.4876 0009994  76.7663 283.5094 14.13527748517788
SICH-1
1 23657U 95046A   05013.72966595  .00000355  00000-0  42652-4 0  3265
2 23657  82.5286 182.2135 0022823 271.2139  88.6432 14.81051124505097
NOAA-15
1 25338U 98030A   05013.75259029  .00000097  00000-0  41766-4 0  8789
2 25338  98.5159  26.7734 0011475  89.6049 270.6917 14.24481567346774
RESURS
1 25394U 98043A   05013.49523527  .00000035  00000-0  33961-4 0  9931
2 25394  98.5600  86.9787 0000789 212.5054 147.6077 14.24045317338435
FENGYUN1
1 25730U 99025A   05012.64304493  .00000229  00000-0  14862-3 0  3242
2 25730  98.6042  20.6639 0014661 180.5697 179.5469 14.11787465292567
OKEAN-0
1 25860U 99039A   05012.76642598  .00000230  00000-0  42936-4 0  3296
2 25860  97.7738  45.3613 0001396  55.3790 304.7550 14.73185888295120
NOAA-16
1 26536U 00055A   05013.83749529  .00000279  00000-0  15183-3 0  1832
2 26536  98.9937 331.5701 0010950 139.8710 220.3755 14.12198258222273
NOAA-17
1 27453U 02032A   05013.80930185  .00000191  00000-0  83769-4 0  2071
2 27453  98.6796  89.5555 0012436 140.3947 219.8628 14.23619474132877
HUBBLE
1 20580U 90037B   05013.52571188  .00000743  00000-0  45955-4 0  2472
2 20580  28.4658 196.3916 0003211  74.8571 285.2448 14.99535345607008
UARS
1 21701U 91063B   05012.84005882 -.00000471  00000-0 -15324-4 0  3518
2 21701  56.9798  99.7392 0006432  87.8669 272.3104 15.03728804730125
PO-34
1 25520U 98064B   05012.10876219  .00001105  00000-0  46082-4 0   906
2 25520  28.4615 275.5954 0005271 330.5736  29.4557 15.16030853342879
ISS
1 25544U 98067A   05014.00232007  .00023298  00000-0  17265-3 0  5820
2 25544  51.6401 329.1953 0003289 194.7664 251.2861 15.72786987351442
OO-38
1 26063U 00004C   05013.55487325 -.00000070  00000-0 -38263-5 0  2594
2 26063 100.2228 205.1516 0037174 129.9692 230.4761 14.35695193260102
NO-45
1 26932U 01043D   05013.31190799 -.00000033  00000-0  19476-4 0  9378
2 26932  67.0598 266.3194 0008507 276.8067  83.2066 14.29465013171667
